Location: eljas
(40.1958°N, 6.8661°W)
Time: 12:48:14
(UTC+01:00)

Daily predictions for brighter satellites

Satellite Brightness Start Highest point End
(mag) Time Altitude Azimuth Time Altitude Azimuth Time Altitude Azimuth
CORIOLIS 4.5 18:27:41 10° SE 18:32:45 44° ENE 18:37:50 10° N
Cosmos 1536 Rocket 3.6 18:30:05 10° S 18:34:32 84° E 18:39:03 10° N
NOSS 2-1 (E) 3.7 18:33:47 10° SSW 18:37:30 49° ESE 18:41:38 10° NE
SPOT 3 Rocket 3.6 18:34:21 10° SSE 18:39:24 57° ENE 18:44:28 10° N
ISS -0.9 18:39:21 10° NNW 18:40:34 12° N 18:41:48 10° NNE
Nadezhda 3 Rocket 4.2 18:35:12 10° SSE 18:41:08 49° E 18:47:08 10° NNE
YAOGAN 1 2.7 18:40:48 10° SSE 18:45:00 54° ENE 18:49:15 10° N
Meteor 2-4 Rocket 4.5 18:41:25 10° SE 18:45:51 27° E 18:50:17 10° NNE
Meteor 1-13 Rocket 4.4 18:43:49 10° S 18:49:22 55° E 18:55:03 10° NNE
Cosmos 1484 Rocket 3.7 18:47:09 10° SE 18:50:10 24° ENE 18:53:12 10° NNE
Cosmos 1809 Rocket 4.4 18:49:33 10° N 18:55:43 74° E 19:01:47 10° SSE
USA 234 3.3 18:49:58 10° NE 18:56:32 77° SE 19:03:04 10° SW
Abrixas 3.0 18:53:42 10° WNW 18:56:37 57° SW 18:59:31 10° SE
Cosmos 1238 Rocket 4.4 18:54:16 10° SW 18:56:54 27° WNW 18:59:46 10° NNW
MOS 1 4.3 18:52:21 10° SSE 18:58:01 88° E 19:03:42 10° NNW
COSMOS 2487 3.5 18:56:52 10° NNW 19:00:22 51° WSW 19:03:50 10° S
Intercosmos 25 3.1 19:00:15 10° N 19:03:19 48° E 19:06:53 10° SSE
SJ-7 4.5 19:01:17 10° SSE 19:05:31 89° ENE 19:09:47 10° NNW
MSX 3.8 19:00:12 10° SSE 19:05:53 67° ENE 19:11:36 10° N
Delta 2 Rocket 4.0 19:03:09 10° WSW 19:06:29 40° S 19:09:49 12° ESE
Cosmos 1975 3.9 19:02:56 10° NNW 19:06:51 48° W 19:10:43 10° SSW
Cosmos 2297 4.0 19:01:30 10° SSW 19:07:06 69° WNW 19:12:45 10° NNE
FALCON 9 R/B 4.5 18:33:21 10° WSW 19:07:44 67° S 19:15:11 13° E
Okean 2 4.4 19:06:10 10° SE 19:09:38 26° E 19:11:38 18° NE
SKYMED 2 4.0 19:06:26 10° NNE 19:10:33 41° E 19:14:39 10° S
Thor Agena Rocket 3.8 19:06:46 10° N 19:12:00 72° WNW 19:17:15 10° SSW
BREEZE M DEB (TANK) 3.0 19:02:18 10° SW 19:12:10 88° SSE 19:14:24 21° ENE
IDEFIX/ARIANE 42P 2.8 19:07:16 10° S 19:12:26 72° WSW 19:17:37 10° NNW
NOSS 3-4 (A) 3.9 19:05:48 10° NNW 19:12:42 57° NE 19:20:01 10° SE
NOSS 3-4 (C) 3.9 19:05:54 10° NNW 19:12:48 57° NE 19:20:07 10° SE
Cosmos 2278 Rocket 3.9 19:09:52 10° WSW 19:14:47 30° WNW 19:19:43 10° N
Cosmos 1340 3.9 19:15:23 10° SE 19:18:06 22° E 19:18:06 22° E
COSMOS 2441 4.3 19:13:31 10° SSE 19:18:22 73° ENE 19:23:16 10° N
CZ-2C R/B 3.1 19:13:49 10° S 19:18:46 60° W 19:23:54 10° NNW
CZ-4 R/B 3.0 19:16:05 10° SSW 19:19:58 39° W 19:23:50 10° NNW
Cosmos 1934 Rocket 4.1 19:16:17 10° N 19:22:22 52° E 19:28:30 10° SSE
Cosmos 1892 Rocket 4.1 19:19:38 10° SSE 19:23:35 35° E 19:25:33 23° NE
Cosmos 1726 Rocket 3.9 19:25:15 10° N 19:29:31 42° ENE 19:33:45 10° SSE
Cosmos 1833 Rocket 3.0 19:24:04 10° NNW 19:29:41 69° WSW 19:35:15 10° SSE
SMAP 4.4 19:28:04 10° S 19:32:27 42° W 19:36:53 10° NNW
Okean 1-7 Rocket 4.1 19:28:30 10° SSW 19:32:57 62° W 19:37:24 10° N
Cosmos 1535 Rocket 4.4 19:28:07 10° N 19:34:25 82° E 19:40:36 10° S
Cosmos 1666 2.6 19:34:48 10° N 19:38:42 78° E 19:42:34 10° S
Cosmos 2082 Rocket 3.3 19:35:21 10° NW 19:40:45 47° WSW 19:46:10 10° S
Cosmos 407 Rocket 3.4 19:41:32 10° NNW 19:46:39 63° ENE 19:51:46 10° SSE
Cosmos 1606 Rocket 3.5 19:44:55 10° N 19:49:26 86° E 19:53:54 10° S
Cosmos 2056 Rocket 3.7 19:44:22 10° SSW 19:49:43 75° WNW 19:53:55 16° NNE
Cosmos 1821 Rocket 4.3 19:52:31 10° NNW 19:58:33 65° W 20:04:35 10° S
COSMO-SKYMED 1 3.2 19:54:37 11° N 19:58:38 55° WNW 20:02:52 10° SSW
Cosmos 676 Rocket 3.9 19:53:58 10° N 19:59:06 57° ENE 20:00:49 38° SE
Cosmos 1025 Rocket 4.1 19:57:01 10° SSW 20:01:14 46° W 20:05:30 10° N
Tiangong 1 2.6 19:59:22 10° WNW 20:01:13 31° NW 20:01:13 31° NW
Cosmos 1954 Rocket 4.3 19:57:53 10° N 20:01:57 43° NNE 20:01:57 43° NNE
Cosmos 1153 Rocket 4.5 19:57:15 10° N 20:03:14 51° ENE 20:09:10 10° SSE
Meteor 1-28 Rocket 3.4 20:06:36 60° NNW 20:07:06 69° WNW 20:10:51 10° SSW
Cosmos 1605 Rocket 3.9 20:03:11 10° N 20:09:29 85° E 20:15:39 10° S
NOAA 12 4.0 20:06:52 10° SSE 20:12:08 87° WSW 20:17:25 10° NNW
ATLAS 3B CENTAUR R/B 4.5 19:56:45 10° W 20:16:43 43° SSW 20:22:31 20° SE
Cosmos 2369 Rocket 2.1 20:11:25 10° S 20:17:01 67° ESE 20:17:16 66° E
Cosmos 2058 Rocket 3.6 20:22:43 10° NNW 20:27:06 57° W 20:31:25 10° S
Cosmos 1452 Rocket 3.7 20:33:19 10° SSW 20:38:32 65° WNW 20:38:40 65° WNW
USA 234 4.3 20:37:05 30° N 20:39:11 37° NNW 20:45:04 10° W
Cosmos 1943 Rocket 4.0 20:37:10 10° S 20:38:38 18° S 20:38:38 18° S
CZ-3B DEB 4.3 20:37:55 10° WNW 20:43:47 33° N 20:46:08 30° NNE
Cosmos 1727 Rocket 4.5 20:41:53 10° SSW 20:47:58 58° W 20:51:41 24° N
BREEZE M DEB (TANK) 4.2 20:48:55 10° WNW 20:53:48 80° SSW 20:58:07 43° SE
